Voltar ao catálogo

COSMOS 397 DEB *

AtivoLEO
NORAD 14446·DEBRIS·🇷🇺 Russia

Lançado Feb 25, 1971 de Baikonur Cosmodrome

Loading…

Próximas Passagens (próximas 24 horas)

TLE

AtualizadoSource: Space-Track

Época: Sep 14, 2026, 22:30 UTC

1 14446U 71015CQ  26257.93760624  .00000292  00000-0  45552-3 0  9999
2 14446  65.5694  91.1953 0048250  99.6305 331.2280 13.65152472656669

Acompanhe COSMOS 397 DEB * em tempo real com AllMySat

Download on the App Store